Regional Weather Roundup
Issued by NWS Kansas City/Pleasant Hill, MO

Home | Current Version | Previous Version | Text Only | Print | Product List | Glossary On
Versions: 1 2 3 4 5 6 7 8 9 10 11 12 13 14 15 16 17 18 19 20 21 22 23 24 25 26 27 28 29 30 31 32 33 34 35 36 37 38 39 40 41 42 43 44 45 46 47 48 49 50
000
ASUS43 KEAX 261711
RWREAX

WEATHER ROUNDUP FOR EASTERN KANSAS AND NORTHWEST MISSOURI
NATIONAL WEATHER SERVICE KANSAS CITY/PLEASANT HILL MO
1100 AM CST MON JAN 26 2015

KSZ040-057-103>105-MOZ028-029-037-043-261800-
...KANSAS CITY METROPOLITAN AREA...

CITY           SKY/WX    TMP DP  RH WIND       PRES   REMARKS
K.C. INTL      MOSUNNY   44  33  65 W18       29.94R
K.C. DOWNTOWN  SUNNY     46  31  55 W12       29.95F
LEES SUMMIT    SUNNY     44  31  60 SW18G28   29.95S
OLATHE - IXD   SUNNY     43  33  68 SW16G22   29.97S
OLATHE - OJC   SUNNY     43  32  65 W15G28    29.95F
LAWRENCE       SUNNY     45  32  60 W13       29.97F

$$

MOZ001>008-011>017-020>025-030>033-038>040-044>046-053-054-261800-
...NORTHERN AND CENTRAL MISSOURI...

CITY           SKY/WX    TMP DP  RH WIND       PRES   REMARKS
ST. JOSEPH     SUNNY     44  34  67 W8        29.95R
MOSBY          SUNNY     43  32  65 SW14G22   29.95R
WARRENSBURG    SUNNY     43  32  65 S15       29.94F
WHITEMAN AFB   SUNNY     42  32  68 SW18      29.94F WCI  34
CLINTON        SUNNY     43  34  70 SW17      29.98F WCI  35
SEDALIA        SUNNY     42  33  70 SW18G24   29.97F WCI  34
WARSAW         NOT AVBL
MARSHALL       SUNNY     41  34  75 SW16G22   29.96F WCI  33
CHILLICOTHE      N/A     41  32  70 SW9G17    29.92F
KIRKSVILLE     CLOUDY    35  31  85 SW13      29.87F WCI  26

$$

MOZ041-047>049-056>058-063>065-088>090-097-261800-
...EASTERN AND SOUTHERN MISSOURI...

CITY           SKY/WX    TMP DP  RH WIND       PRES   REMARKS
ST. LOUIS INTL CLOUDY    33  25  72 SW9       30.00F WCI  25
SPIRIT OF STL  CLOUDY    33  25  72 S5        30.01F WCI  29
COLUMBIA       PTSUNNY   39  32  76 SW14      29.96F WCI  31
JEFFERSON CITY MOSUNNY   39  30  70 SW10      29.99F WCI  32
MEXICO         CLOUDY    37  34  87 SW14      29.95  WCI  29
HANNIBAL       CLOUDY    34  30  86 S15G21    29.88F WCI  24
ROLLA          PTSUNNY   37  30  75 SW12      29.99F WCI  29
LEBANON        SUNNY     43  32  65 W9        30.02F
OSAGE BEACH    SUNNY     41  30  65 W8        30.02F
SPRINGFIELD    SUNNY     43  31  62 SW10      30.04F
BRANSON        SUNNY     46  32  57 W13       30.08F
NEVADA         SUNNY     45  32  61 S15       30.01F
JOPLIN         SUNNY     45  32  60 SW13      30.06F
WEST PLAINS    MOSUNNY   39  28  64 W8        30.06F WCI  33

$$

IAZ060-094-KSZ022-034>040-054-083-096-NEZ052-066-093-261800-
...KANSAS...SOUTHEAST NEBRASKA AND IOWA...

CITY           SKY/WX    TMP DP  RH WIND       PRES   REMARKS
TOPEKA         SUNNY     48  32  53 W14       29.96S
MANHATTAN      SUNNY     50  33  52 W9G17     29.99S
EMPORIA        SUNNY     49  32  52 W15       30.00R
CHANUTE        SUNNY     46  33  60 SW16      30.03F
WICHITA        MOSUNNY   54  33  45 NW15      30.05R
OMAHA          MOSUNNY   50  36  58 NW9       29.90R
LINCOLN        SUNNY     53  36  52 N16G25    29.96R
FALLS CITY     SUNNY     48  34  58 W15       29.92S
LAMONI         MOSUNNY   40  31  70 W14G25    29.87R WCI  32
DES MOINES     MOSUNNY   43  32  65 W13G22    29.81S

$$



USA.gov is the U.S. government's official web portal to all federal, state and local government web resources and services.